Meteor 2-5 Rocket - Orbit

View from above orbital plane
View from above orbital plane
View from above satellite
View from above satellite

Ground track
Ground track

The orbit data is extracted from the following two-line orbital elements,

1 11608U 79095B   13168.54543556  .00000039  00000-0  16728-4 0  3075
2 11608 081.2129 188.2321 0053352 305.7349 162.0420 14.05949945724823
Epoch (UTC): 17 June 2013 13:05:25
Eccentricity: 0.0053352
inclination: 81.2129°
perigee height: 834 km
apogee height: 912 km
right ascension of ascending node: 188.2321°
argument of perigee: 305.7349°
revolutions per day: 14.05949945
mean anomaly at epoch: 162.0420°
orbit number at epoch: 72482

The dashed part of the orbit path shows where the satellite is in the earth's shadow,  

Developed and maintained by Chris Peat, Heavens-Above GmbH. Please read the updated FAQ before sending e-mail. Imprint. DLR